sat.trackr.live / text

‹ back to catalog

STARLINK-37262

NORAD 68508 · 2026-068A

PAYLOAD ACTIVE UNKNOWN

§ Identity

Operator
Country
US
Launch date
2026-03-30
Launch site
AFETR
Launch vehicle
Mass (kg)
RCS (m²)

Purposes: comms

External: N2YO · Heavens-Above · Gunter

§ Orbital elements

Epoch: 2026-05-25T04:00:03.998880Z

Period
93.26 min
Inclination
53.1644°
Eccentricity
0.0001248
Mean motion
15.44034291 rev/d
Perigee alt
433.4 km
Apogee alt
435.1 km
Semi-major
6,812.4 km
B*
-4.8701e-2
RAAN
127.3124°
Arg perigee
82.8736°
Mean anomaly
34.0787°
Rev number
601

§ Raw data

STARLINK-372621 68508U 26068A   26145.16671295 -.02011706  00000+0 -48701-1 0  99932 68508  53.1644 127.3124 0001248  82.8736  34.0787 15.44034291  6010

JSON: /api/v1/satellites/68508 · /tle

For live sub-satellite position, see the globe view (requires WebGL).

§ Visibility from observer

Set your observer location to see the next 7 days of passes ≥ 10°. The values pass through the URL so the page stays shareable.

No JS? Fill the form by hand. The geolocation button needs JavaScript.